CPV1026 SBCG-SBSP

Flight info

Callsign CPV1026
Flight time 1h 16m
Altitude 32000
Route BRAKE DCT ASEPO UM411 UTLOT
Aircraft B738/M-SDE3/L

Departure

Time 2026-04-20 12:55
Airport Campo Grande Airport (SBCG)

Arrival

Time 2026-04-20 14:11
Airport Congonhas–Deputado Freitas Nobre Airport (SBSP)
Time Latitude Longitude Altitude Speed Heading
2026-04-20 12:31 -20.45780 -54.66821 1836 ft 0 kts 353°
2026-04-20 12:44 -20.45794 -54.66819 1836 ft 4 kts 352°
2026-04-20 12:44 -20.45818 -54.66815 1837 ft 2 kts 343°
2026-04-20 12:44 -20.45828 -54.66810 1837 ft 2 kts 308°
2026-04-20 12:45 -20.45833 -54.66799 1837 ft 2 kts 271°
2026-04-20 12:45 -20.45833 -54.66787 1836 ft 2 kts 266°
2026-04-20 12:45 -20.45833 -54.66786 1836 ft 0 kts 266°
2026-04-20 12:46 -20.45833 -54.66788 1836 ft 1 kts 266°
2026-04-20 12:47 -20.45835 -54.66814 1836 ft 5 kts 264°
2026-04-20 12:47 -20.45839 -54.66853 1836 ft 6 kts 263°
2026-04-20 12:47 -20.45845 -54.66914 1836 ft 13 kts 263°
2026-04-20 12:47 -20.45857 -54.67031 1836 ft 16 kts 265°
2026-04-20 12:48 -20.45876 -54.67121 1836 ft 12 kts 231°
2026-04-20 12:48 -20.45956 -54.67141 1836 ft 12 kts 177°
2026-04-20 12:48 -20.46038 -54.67132 1836 ft 12 kts 175°
2026-04-20 12:48 -20.46118 -54.67122 1836 ft 11 kts 172°
2026-04-20 12:49 -20.46196 -54.67112 1836 ft 11 kts 174°
2026-04-20 12:49 -20.46271 -54.67102 1836 ft 11 kts 172°
2026-04-20 12:49 -20.46345 -54.67093 1836 ft 10 kts 178°
2026-04-20 12:49 -20.46415 -54.67107 1836 ft 10 kts 204°
2026-04-20 12:50 -20.46472 -54.67150 1837 ft 10 kts 219°
2026-04-20 12:50 -20.46522 -54.67198 1836 ft 10 kts 223°
2026-04-20 12:50 -20.46571 -54.67246 1836 ft 9 kts 222°
2026-04-20 12:50 -20.46623 -54.67296 1836 ft 13 kts 222°
2026-04-20 12:51 -20.46716 -54.67385 1837 ft 22 kts 222°
2026-04-20 12:51 -20.46854 -54.67518 1836 ft 31 kts 222°
2026-04-20 12:51 -20.47015 -54.67673 1836 ft 31 kts 222°
2026-04-20 12:51 -20.47170 -54.67823 1836 ft 29 kts 222°
2026-04-20 12:52 -20.47315 -54.67963 1836 ft 27 kts 221°
2026-04-20 12:52 -20.47418 -54.68061 1836 ft 17 kts 223°
2026-04-20 12:52 -20.47503 -54.68144 1837 ft 16 kts 222°
2026-04-20 12:52 -20.47585 -54.68222 1836 ft 16 kts 222°
2026-04-20 12:53 -20.47664 -54.68299 1836 ft 15 kts 222°
2026-04-20 12:53 -20.47746 -54.68345 1836 ft 9 kts 167°
2026-04-20 12:53 -20.47788 -54.68299 1837 ft 9 kts 124°
2026-04-20 12:53 -20.47832 -54.68255 1838 ft 8 kts 129°
2026-04-20 12:54 -20.47835 -54.68208 1838 ft 7 kts 57°
2026-04-20 12:54 -20.47823 -54.68195 1838 ft 0 kts 43°
2026-04-20 12:54 -20.47693 -54.68068 1838 ft 62 kts 42°
2026-04-20 12:55 -20.47191 -54.67582 1836 ft 130 kts 43°
2026-04-20 12:55 -20.46402 -54.66831 2137 ft 156 kts 43°
2026-04-20 12:55 -20.45586 -54.66062 2920 ft 159 kts 43°
2026-04-20 12:55 -20.44781 -54.65283 3805 ft 161 kts 42°
2026-04-20 12:56 -20.43881 -54.64419 4242 ft 192 kts 43°
2026-04-20 12:56 -20.42820 -54.63396 4480 ft 219 kts 43°
2026-04-20 12:56 -20.41622 -54.62256 4828 ft 247 kts 41°
2026-04-20 12:56 -20.40292 -54.60966 5359 ft 263 kts 43°
2026-04-20 12:57 -20.39000 -54.59578 6248 ft 264 kts 54°
2026-04-20 12:57 -20.38399 -54.57734 6715 ft 269 kts 86°
2026-04-20 12:57 -20.38617 -54.55754 7024 ft 281 kts 102°
2026-04-20 12:57 -20.39523 -54.53892 7039 ft 286 kts 126°
2026-04-20 12:58 -20.40580 -54.52127 7029 ft 281 kts 104°
2026-04-20 12:58 -20.40659 -54.50101 7081 ft 273 kts 81°
2026-04-20 12:58 -20.40541 -54.48053 7027 ft 278 kts 87°
2026-04-20 12:58 -20.40694 -54.46004 7024 ft 282 kts 105°
2026-04-20 12:59 -20.41488 -54.44087 7018 ft 285 kts 113°
2026-04-20 12:59 -20.42325 -54.42179 7049 ft 284 kts 111°
2026-04-20 12:59 -20.43126 -54.40251 7035 ft 284 kts 111°
2026-04-20 12:59 -20.43914 -54.38330 7028 ft 282 kts 110°
2026-04-20 13:00 -20.44693 -54.36426 7035 ft 278 kts 111°
2026-04-20 13:00 -20.45507 -54.34537 7195 ft 283 kts 113°
2026-04-20 13:00 -20.46382 -54.32640 7958 ft 286 kts 114°
2026-04-20 13:00 -20.47257 -54.30763 8903 ft 286 kts 115°
2026-04-20 13:01 -20.48155 -54.28849 9772 ft 290 kts 115°
2026-04-20 13:01 -20.49064 -54.26901 10458 ft 298 kts 115°
2026-04-20 13:01 -20.50025 -54.24835 10668 ft 324 kts 115°
2026-04-20 13:01 -20.51054 -54.22610 10979 ft 342 kts 115°
2026-04-20 13:02 -20.52119 -54.20309 11590 ft 348 kts 115°
2026-04-20 13:02 -20.53197 -54.17978 12312 ft 351 kts 115°
2026-04-20 13:02 -20.54283 -54.15626 13043 ft 355 kts 115°
2026-04-20 13:02 -20.55376 -54.13253 13724 ft 359 kts 115°
2026-04-20 13:03 -20.56484 -54.10850 14335 ft 363 kts 115°
2026-04-20 13:03 -20.57600 -54.08426 14930 ft 366 kts 115°
2026-04-20 13:03 -20.58728 -54.05975 15526 ft 369 kts 115°
2026-04-20 13:03 -20.59867 -54.03500 16135 ft 373 kts 116°
2026-04-20 13:04 -20.61015 -54.01005 16726 ft 376 kts 116°
2026-04-20 13:04 -20.62168 -53.98487 17303 ft 380 kts 114°
2026-04-20 13:04 -20.63027 -53.95816 17862 ft 383 kts 103°
2026-04-20 13:04 -20.63570 -53.93020 18421 ft 386 kts 101°
2026-04-20 13:05 -20.64085 -53.90228 18883 ft 390 kts 101°
2026-04-20 13:05 -20.64618 -53.87371 19331 ft 394 kts 102°
2026-04-20 13:05 -20.65167 -53.84487 19798 ft 398 kts 102°
2026-04-20 13:05 -20.65733 -53.81581 20254 ft 402 kts 102°
2026-04-20 13:06 -20.66312 -53.78648 20709 ft 405 kts 103°
2026-04-20 13:06 -20.66902 -53.75682 21160 ft 409 kts 103°
2026-04-20 13:06 -20.67500 -53.72696 21628 ft 413 kts 103°
2026-04-20 13:06 -20.68102 -53.69690 22087 ft 416 kts 103°
2026-04-20 13:07 -20.68711 -53.66648 22535 ft 419 kts 103°
2026-04-20 13:07 -20.69324 -53.63590 22972 ft 423 kts 103°
2026-04-20 13:07 -20.69940 -53.60507 23401 ft 426 kts 103°
2026-04-20 13:07 -20.70561 -53.57397 23783 ft 429 kts 103°
2026-04-20 13:08 -20.71186 -53.54266 24128 ft 432 kts 103°
2026-04-20 13:08 -20.71805 -53.51157 24449 ft 436 kts 103°
2026-04-20 13:08 -20.72439 -53.47972 24780 ft 439 kts 104°
2026-04-20 13:08 -20.73077 -53.44766 25102 ft 443 kts 104°
2026-04-20 13:09 -20.73720 -53.41530 25414 ft 446 kts 104°
2026-04-20 13:09 -20.74365 -53.38275 25725 ft 449 kts 104°
2026-04-20 13:09 -20.75016 -53.34989 26034 ft 452 kts 104°
2026-04-20 13:09 -20.75670 -53.31692 26334 ft 456 kts 104°
2026-04-20 13:10 -20.76327 -53.28367 26641 ft 459 kts 104°
2026-04-20 13:10 -20.76988 -53.25023 26934 ft 462 kts 104°
2026-04-20 13:10 -20.77654 -53.21649 27231 ft 465 kts 105°
2026-04-20 13:10 -20.78322 -53.18261 27513 ft 468 kts 105°
2026-04-20 13:11 -20.78994 -53.14847 27801 ft 470 kts 105°
2026-04-20 13:11 -20.79669 -53.11413 28074 ft 473 kts 105°
2026-04-20 13:11 -20.80339 -53.08005 28343 ft 476 kts 105°
2026-04-20 13:11 -20.81029 -53.04488 28609 ft 478 kts 105°
2026-04-20 13:12 -20.81704 -53.01042 28868 ft 481 kts 105°
2026-04-20 13:12 -20.82392 -52.97532 29112 ft 484 kts 105°
2026-04-20 13:12 -20.83082 -52.94001 29376 ft 486 kts 105°
2026-04-20 13:12 -20.83774 -52.90457 29686 ft 487 kts 105°
2026-04-20 13:13 -20.84466 -52.86909 30079 ft 486 kts 105°
2026-04-20 13:13 -20.85257 -52.83413 30400 ft 483 kts 111°
2026-04-20 13:13 -20.86368 -52.80033 30716 ft 480 kts 115°
2026-04-20 13:13 -20.87560 -52.76702 31036 ft 479 kts 116°
2026-04-20 13:14 -20.88765 -52.73382 31356 ft 479 kts 116°
2026-04-20 13:14 -20.89960 -52.70055 31682 ft 479 kts 115°
2026-04-20 13:14 -20.91127 -52.66760 32018 ft 478 kts 115°
2026-04-20 13:14 -20.92305 -52.63383 32353 ft 478 kts 115°
2026-04-20 13:15 -20.93439 -52.60101 32673 ft 478 kts 115°
2026-04-20 13:15 -20.94591 -52.56754 33002 ft 477 kts 115°
2026-04-20 13:15 -20.95738 -52.53415 33334 ft 477 kts 115°
2026-04-20 13:15 -20.96879 -52.50089 33669 ft 476 kts 115°
2026-04-20 13:16 -20.98020 -52.46765 33977 ft 476 kts 115°
2026-04-20 13:16 -20.99162 -52.43438 34262 ft 475 kts 115°
2026-04-20 13:16 -21.00299 -52.40124 34572 ft 474 kts 115°
2026-04-20 13:16 -21.01434 -52.36816 34857 ft 473 kts 115°
2026-04-20 13:17 -21.02569 -52.33504 35052 ft 474 kts 115°
2026-04-20 13:17 -21.04474 -52.27947 35059 ft 482 kts 115°
2026-04-20 13:18 -21.07171 -52.20056 35046 ft 486 kts 115°
2026-04-20 13:18 -21.09496 -52.13244 35043 ft 487 kts 115°
2026-04-20 13:19 -21.11442 -52.07538 35039 ft 487 kts 115°
2026-04-20 13:19 -21.13761 -52.00728 35038 ft 485 kts 115°
2026-04-20 13:20 -21.16052 -51.93987 35050 ft 484 kts 115°
2026-04-20 13:20 -21.18349 -51.87218 35041 ft 481 kts 115°
2026-04-20 13:21 -21.20629 -51.80491 35046 ft 479 kts 115°
2026-04-20 13:21 -21.22902 -51.73778 35050 ft 478 kts 115°
2026-04-20 13:22 -21.25165 -51.67084 35040 ft 477 kts 115°
2026-04-20 13:22 -21.27418 -51.60406 35049 ft 476 kts 115°
2026-04-20 13:23 -21.29667 -51.53734 35055 ft 476 kts 115°
2026-04-20 13:23 -21.31916 -51.47051 35060 ft 476 kts 115°
2026-04-20 13:24 -21.34150 -51.40401 35059 ft 477 kts 115°
2026-04-20 13:24 -21.36400 -51.33692 35058 ft 478 kts 115°
2026-04-20 13:25 -21.38649 -51.26980 35059 ft 478 kts 115°
2026-04-20 13:25 -21.40898 -51.20255 35060 ft 479 kts 115°
2026-04-20 13:26 -21.43151 -51.13514 35065 ft 480 kts 115°
2026-04-20 13:26 -21.45408 -51.06747 35067 ft 481 kts 115°
2026-04-20 13:27 -21.47658 -50.99989 35065 ft 481 kts 115°
2026-04-20 13:27 -21.49903 -50.93220 35068 ft 481 kts 115°
2026-04-20 13:28 -21.52133 -50.86481 35071 ft 481 kts 115°
2026-04-20 13:28 -21.54373 -50.79704 35072 ft 481 kts 115°
2026-04-20 13:29 -21.56610 -50.72927 35080 ft 481 kts 115°
2026-04-20 13:29 -21.58839 -50.66164 35076 ft 480 kts 114°
2026-04-20 13:30 -21.61065 -50.59400 35081 ft 479 kts 114°
2026-04-20 13:30 -21.63281 -50.52655 35079 ft 478 kts 114°
2026-04-20 13:31 -21.65478 -50.45957 35078 ft 477 kts 114°
2026-04-20 13:31 -21.67685 -50.39235 35086 ft 476 kts 115°
2026-04-20 13:32 -21.69904 -50.32516 35079 ft 475 kts 115°
2026-04-20 13:32 -21.72109 -50.25827 35083 ft 474 kts 115°
2026-04-20 13:33 -21.74308 -50.19139 35082 ft 474 kts 114°
2026-04-20 13:33 -21.76502 -50.12457 35085 ft 473 kts 114°
2026-04-20 13:34 -21.78669 -50.05826 35086 ft 473 kts 114°
2026-04-20 13:34 -21.80842 -49.99155 35088 ft 472 kts 114°
2026-04-20 13:35 -21.83011 -49.92490 35087 ft 471 kts 114°
2026-04-20 13:35 -21.85178 -49.85823 35092 ft 471 kts 114°
2026-04-20 13:36 -21.87336 -49.79171 35089 ft 471 kts 114°
2026-04-20 13:36 -21.89494 -49.72513 35091 ft 471 kts 114°
2026-04-20 13:37 -21.91647 -49.65856 35095 ft 470 kts 114°
2026-04-20 13:37 -21.93794 -49.59208 35096 ft 470 kts 114°
2026-04-20 13:38 -21.95921 -49.52594 35093 ft 470 kts 114°
2026-04-20 13:38 -21.98053 -49.45937 35091 ft 469 kts 114°
2026-04-20 13:39 -22.00180 -49.39282 35093 ft 469 kts 114°
2026-04-20 13:39 -22.02306 -49.32627 35091 ft 469 kts 114°
2026-04-20 13:40 -22.04413 -49.26017 35100 ft 468 kts 114°
2026-04-20 13:40 -22.06529 -49.19374 35112 ft 469 kts 114°
2026-04-20 13:41 -22.08643 -49.12723 35117 ft 468 kts 114°
2026-04-20 13:41 -22.10757 -49.06068 35124 ft 468 kts 114°
2026-04-20 13:42 -22.12869 -48.99424 35135 ft 467 kts 114°
2026-04-20 13:42 -22.16014 -48.89513 35128 ft 467 kts 114°
2026-04-20 13:43 -22.18114 -48.82878 35124 ft 467 kts 114°
2026-04-20 13:43 -22.20189 -48.76313 35117 ft 467 kts 114°
2026-04-20 13:44 -22.22286 -48.69666 35109 ft 468 kts 114°
2026-04-20 13:44 -22.24362 -48.63068 35080 ft 455 kts 114°
2026-04-20 13:45 -22.26373 -48.56671 35107 ft 448 kts 114°
2026-04-20 13:45 -22.28380 -48.50293 34736 ft 449 kts 114°
2026-04-20 13:46 -22.29377 -48.47115 34404 ft 444 kts 114°
2026-04-20 13:46 -22.30363 -48.43965 34013 ft 441 kts 114°
2026-04-20 13:46 -22.31343 -48.40835 33583 ft 438 kts 114°
2026-04-20 13:46 -22.32316 -48.37723 33171 ft 435 kts 113°
2026-04-20 13:47 -22.33270 -48.34676 32774 ft 432 kts 113°
2026-04-20 13:47 -22.34228 -48.31609 32377 ft 429 kts 112°
2026-04-20 13:47 -22.35180 -48.28563 31996 ft 426 kts 112°
2026-04-20 13:47 -22.36125 -48.25534 31606 ft 423 kts 112°
2026-04-20 13:48 -22.37063 -48.22528 31242 ft 421 kts 111°
2026-04-20 13:48 -22.37993 -48.19546 30859 ft 418 kts 111°
2026-04-20 13:48 -22.38919 -48.16571 30489 ft 416 kts 111°
2026-04-20 13:48 -22.39839 -48.13616 30099 ft 414 kts 110°
2026-04-20 13:49 -22.40755 -48.10670 29656 ft 411 kts 110°
2026-04-20 13:49 -22.41661 -48.07754 29228 ft 408 kts 110°
2026-04-20 13:49 -22.42558 -48.04863 28854 ft 403 kts 110°
2026-04-20 13:49 -22.43446 -48.02000 28445 ft 400 kts 111°
2026-04-20 13:50 -22.44327 -47.99161 28064 ft 396 kts 111°
2026-04-20 13:50 -22.45200 -47.96345 27676 ft 393 kts 111°
2026-04-20 13:50 -22.46064 -47.93552 27293 ft 390 kts 111°
2026-04-20 13:50 -22.47028 -47.90830 26899 ft 386 kts 119°
2026-04-20 13:51 -22.48408 -47.88378 26574 ft 378 kts 129°
2026-04-20 13:51 -22.50113 -47.86262 26269 ft 370 kts 138°
2026-04-20 13:51 -22.51966 -47.84345 25928 ft 367 kts 139°
2026-04-20 13:51 -22.53801 -47.82437 25561 ft 365 kts 138°
2026-04-20 13:52 -22.55625 -47.80531 25197 ft 363 kts 138°
2026-04-20 13:52 -22.57435 -47.78632 24835 ft 361 kts 138°
2026-04-20 13:52 -22.59230 -47.76743 24463 ft 360 kts 139°
2026-04-20 13:52 -22.60998 -47.74879 24103 ft 358 kts 139°
2026-04-20 13:53 -22.62784 -47.72994 23719 ft 357 kts 139°
2026-04-20 13:53 -22.64558 -47.71119 23307 ft 356 kts 139°
2026-04-20 13:53 -22.66321 -47.69255 22905 ft 353 kts 139°
2026-04-20 13:53 -22.68075 -47.67399 22520 ft 351 kts 139°
2026-04-20 13:54 -22.69815 -47.65556 22155 ft 348 kts 138°
2026-04-20 13:54 -22.71537 -47.63732 21795 ft 345 kts 138°
2026-04-20 13:54 -22.73249 -47.61918 21440 ft 343 kts 138°
2026-04-20 13:54 -22.74949 -47.60116 21089 ft 340 kts 138°
2026-04-20 13:55 -22.76635 -47.58327 20733 ft 338 kts 138°
2026-04-20 13:55 -22.78309 -47.56552 20384 ft 335 kts 138°
2026-04-20 13:55 -22.79972 -47.54787 20049 ft 333 kts 138°
2026-04-20 13:55 -22.81603 -47.53056 19708 ft 331 kts 138°
2026-04-20 13:56 -22.83242 -47.51315 19366 ft 329 kts 138°
2026-04-20 13:56 -22.84875 -47.49580 19028 ft 328 kts 138°
2026-04-20 13:56 -22.86500 -47.47855 18691 ft 326 kts 138°
2026-04-20 13:56 -22.88120 -47.46133 18357 ft 325 kts 137°
2026-04-20 13:57 -22.89733 -47.44418 17954 ft 324 kts 137°
2026-04-20 13:57 -22.91336 -47.42711 17606 ft 322 kts 137°
2026-04-20 13:57 -22.92927 -47.41018 17268 ft 319 kts 137°
2026-04-20 13:57 -22.94507 -47.39335 16934 ft 318 kts 137°
2026-04-20 13:58 -22.96080 -47.37661 16606 ft 316 kts 137°
2026-04-20 13:58 -22.97645 -47.35994 16270 ft 315 kts 137°
2026-04-20 13:58 -22.99205 -47.34333 15943 ft 313 kts 138°
2026-04-20 13:58 -23.00752 -47.32683 15625 ft 311 kts 137°
2026-04-20 13:59 -23.02294 -47.31038 15295 ft 310 kts 137°
2026-04-20 13:59 -23.03830 -47.29399 14972 ft 309 kts 137°
2026-04-20 13:59 -23.05361 -47.27767 14653 ft 307 kts 137°
2026-04-20 13:59 -23.06881 -47.26144 14330 ft 306 kts 137°
2026-04-20 14:00 -23.08396 -47.24525 14004 ft 305 kts 137°
2026-04-20 14:00 -23.09908 -47.22913 13642 ft 304 kts 137°
2026-04-20 14:00 -23.11411 -47.21308 13305 ft 301 kts 137°
2026-04-20 14:00 -23.12889 -47.19731 12967 ft 296 kts 137°
2026-04-20 14:01 -23.14351 -47.18167 12639 ft 295 kts 137°
2026-04-20 14:01 -23.15316 -47.17133 12416 ft 294 kts 137°
2026-04-20 14:01 -23.17236 -47.15072 12009 ft 291 kts 137°
2026-04-20 14:01 -23.18678 -47.13531 11684 ft 291 kts 137°
2026-04-20 14:02 -23.20118 -47.11989 11369 ft 290 kts 137°
2026-04-20 14:02 -23.21550 -47.10455 11052 ft 289 kts 137°
2026-04-20 14:02 -23.22984 -47.08923 10756 ft 290 kts 137°
2026-04-20 14:02 -23.23960 -47.07882 10514 ft 290 kts 137°
2026-04-20 14:03 -23.25371 -47.06373 10329 ft 285 kts 137°
2026-04-20 14:03 -23.26770 -47.04870 10163 ft 280 kts 136°
2026-04-20 14:03 -23.28152 -47.03384 9861 ft 280 kts 136°
2026-04-20 14:03 -23.29534 -47.01898 9537 ft 279 kts 136°
2026-04-20 14:04 -23.30909 -47.00422 9228 ft 276 kts 136°
2026-04-20 14:04 -23.32272 -46.98959 8948 ft 275 kts 136°
2026-04-20 14:04 -23.33631 -46.97499 8642 ft 273 kts 136°
2026-04-20 14:04 -23.34981 -46.96050 8379 ft 272 kts 137°
2026-04-20 14:05 -23.36327 -46.94607 8105 ft 270 kts 136°
2026-04-20 14:05 -23.37662 -46.93168 7811 ft 268 kts 136°
2026-04-20 14:05 -23.38961 -46.91770 7585 ft 267 kts 136°
2026-04-20 14:05 -23.40282 -46.90337 7276 ft 269 kts 135°
2026-04-20 14:06 -23.41617 -46.88900 7001 ft 272 kts 136°
2026-04-20 14:06 -23.42975 -46.87447 6713 ft 275 kts 136°
2026-04-20 14:06 -23.44377 -46.85949 6203 ft 283 kts 134°
2026-04-20 14:06 -23.45743 -46.84471 5962 ft 271 kts 135°
2026-04-20 14:07 -23.47050 -46.83061 5836 ft 257 kts 136°
2026-04-20 14:07 -23.48309 -46.81710 5671 ft 253 kts 135°
2026-04-20 14:07 -23.49362 -46.80258 5619 ft 248 kts 117°
2026-04-20 14:07 -23.49934 -46.78515 5662 ft 239 kts 107°
2026-04-20 14:08 -23.50384 -46.76798 5435 ft 234 kts 108°
2026-04-20 14:08 -23.50825 -46.75107 5180 ft 229 kts 107°
2026-04-20 14:08 -23.51280 -46.73465 4934 ft 224 kts 117°
2026-04-20 14:08 -23.52374 -46.72343 4662 ft 217 kts 156°
2026-04-20 14:09 -23.53733 -46.71682 4396 ft 214 kts 151°
2026-04-20 14:09 -23.55016 -46.70877 4139 ft 211 kts 150°
2026-04-20 14:09 -23.56283 -46.70091 3962 ft 206 kts 148°
2026-04-20 14:09 -23.57468 -46.69264 3746 ft 198 kts 147°
2026-04-20 14:10 -23.58602 -46.68476 3522 ft 185 kts 147°
2026-04-20 14:10 -23.59657 -46.67746 3250 ft 172 kts 148°
2026-04-20 14:10 -23.60632 -46.67061 3009 ft 160 kts 147°
2026-04-20 14:10 -23.61513 -46.66450 2794 ft 150 kts 146°
2026-04-20 14:11 -23.62361 -46.65845 2622 ft 143 kts 146°
2026-04-20 14:11 -23.63041 -46.65382 2609 ft 55 kts 148°
2026-04-20 14:11 -23.63221 -46.65255 2609 ft 22 kts 148°
2026-04-20 14:11 -23.63352 -46.65209 2606 ft 19 kts 182°
2026-04-20 14:12 -23.63393 -46.65280 2601 ft 14 kts 301°
2026-04-20 14:12 -23.63316 -46.65345 2601 ft 14 kts 328°
2026-04-20 14:12 -23.63236 -46.65398 2601 ft 13 kts 329°
2026-04-20 14:12 -23.63160 -46.65449 2601 ft 13 kts 329°
2026-04-20 14:13 -23.63086 -46.65501 2601 ft 12 kts 327°
2026-04-20 14:13 -23.63005 -46.65529 2602 ft 12 kts 343°
2026-04-20 14:13 -23.62932 -46.65570 2602 ft 12 kts 326°
2026-04-20 14:13 -23.62864 -46.65618 2602 ft 12 kts 327°
2026-04-20 14:14 -23.62797 -46.65664 2602 ft 11 kts 327°
2026-04-20 14:14 -23.62732 -46.65709 2601 ft 11 kts 329°
2026-04-20 14:14 -23.62669 -46.65751 2601 ft 11 kts 327°
2026-04-20 14:14 -23.62608 -46.65794 2601 ft 10 kts 327°
2026-04-20 14:15 -23.62549 -46.65836 2601 ft 10 kts 327°
2026-04-20 14:15 -23.62495 -46.65873 2600 ft 8 kts 327°
2026-04-20 14:15 -23.62487 -46.65922 2600 ft 7 kts 244°
2026-04-20 14:15 -23.62506 -46.65958 2599 ft 2 kts 238°
2026-04-20 14:16 -23.62510 -46.65965 2599 ft 0 kts 237°